Location: 10033 Water Well
(34.0865°N, 106.8959°W)
Time: 22:18:27
(UTC+00:00)

Cosmos 1703 - Visible Passes

Search period start: 18 April 2026 00:00
Search period end: 28 April 2026 00:00
Orbit: 406 x 413 km, 82.5° (Epoch: 18 April)

Date Brightness Start Highest point End Pass type
(mag) Time Alt. Az. Time Alt. Az. Time Alt. Az.
18 Apr 5.9 11:31:05 10° SE 11:33:01 15° E 11:34:58 10° NE visible
20 Apr 5.3 11:27:39 10° SE 11:30:16 23° E 11:32:55 10° NE visible
22 Apr 4.3 11:24:23 10° SSE 11:27:23 37° E 11:30:24 10° NNE visible
24 Apr 3.1 11:21:10 10° S 11:24:21 65° E 11:27:33 10° NNE visible
25 Apr 5.7 10:34:21 10° SE 10:36:16 15° E 10:38:11 10° NE visible
26 Apr 2.6 11:18:21 13° SSW 11:21:10 73° W 11:24:23 10° N visible
27 Apr 5.1 10:30:55 13° SE 10:32:56 23° E 10:35:32 10° NE visible
